This is the latest recevied weather packets stored in our database for station/object KY4GW. If no packets are shown the sender has not sent any weather packets the latest 10 day(s).
| Time | Temp. | Humidity | Pressure | Rain* | Wind** | Luminosity | Snow |
|---|---|---|---|---|---|---|---|
| 1777916084 | 22.22° C | 58% | 1013.1 hPa | 0 mm | - | 864 W/m² | - |
| 1777915782 | 22.22° C | 56% | 1013.1 hPa | 0 mm | - | 869 W/m² | - |
| 1777915477 | 22.22° C | 58% | 1013.1 hPa | 0 mm | - | 873 W/m² | - |
| 1777915174 | 21.67° C | 59% | 1013.1 hPa | 0 mm | - | 873 W/m² | - |
| 1777914872 | 21.67° C | 56% | 1013.4 hPa | 0 mm | - | 871 W/m² | - |
| 1777914568 | 21.67° C | 59% | 1013.4 hPa | 0 mm | - | 878 W/m² | - |
| 1777914265 | 21.11° C | 57% | 1013.4 hPa | 0 mm | - | 881 W/m² | - |
| 1777913962 | 21.11° C | 57% | 1013.4 hPa | 0 mm | - | 878 W/m² | - |
| 1777913658 | 21.11° C | 61% | 1013.4 hPa | 0 mm | - | 878 W/m² | - |
| 1777913355 | 20.56° C | 62% | 1013.4 hPa | 0 mm | - | 882 W/m² | - |
| 1777913052 | 20.56° C | 60% | 1013.4 hPa | 0 mm | - | 833 W/m² | - |
| 1777912748 | 20° C | 62% | 1013.4 hPa | 0 mm | - | 986 W/m² | - |
| 1777912443 | 19.44° C | 63% | 1013.4 hPa | 0 mm | - | 882 W/m² | - |
| 1777912140 | 18.89° C | 64% | 1013.8 hPa | 0 mm | - | 870 W/m² | - |
| 1777911836 | 18.89° C | 64% | 1013.8 hPa | 0 mm | - | 425 W/m² | - |
| 1777911533 | 19.44° C | 67% | 1013.8 hPa | 0 mm | - | 325 W/m² | - |
| 1777911229 | 20° C | 66% | 1013.8 hPa | 0 mm | - | 527 W/m² | - |
| 1777910926 | 19.44° C | 66% | 1013.8 hPa | 0 mm | - | 703 W/m² | - |
| 1777910624 | 19.44° C | 65% | 1013.8 hPa | 0 mm | - | 895 W/m² | - |
| 1777910320 | 18.33° C | 69% | 1013.8 hPa | 0 mm | - | 839 W/m² | - |
| 1777910017 | 17.78° C | 68% | 1013.8 hPa | 0 mm | - | 299 W/m² | - |
| 1777909714 | 16.67° C | 74% | 1013.8 hPa | 0 mm | - | 938 W/m² | - |
| 1777909412 | 16.67° C | 73% | 1013.8 hPa | 0 mm | - | 253 W/m² | - |
| 1777909110 | 16.67° C | 76% | 1013.8 hPa | 0 mm | - | 267 W/m² | - |
| 1777908807 | 16.67° C | 76% | 1013.8 hPa | 0 mm | - | 767 W/m² | - |
* Rain latest hour (hover to see other rain measurements)
** Current wind speed in m/s (hover to see current wind gust speed)